FW4158 Weather Reports


time (UTC)temp
C
wind
direction
speed
KPH
gust
KPH
rain 1hr
cm
rain 24hr
cm
rain mn
cm
humidity
%
barometer
mb
20260506182850 -17 0.0 0.0 0.00 0.00 0.00 1014.7
20260506182327 -17 0.0 0.0 0.00 0.00 0.00 1014.7
20260506181744 -17 0.0 0.0 0.00 0.00 0.00 1014.6
20260506181239 -17 0.0 0.0 0.00 0.00 0.00 1014.6
20260506180731 -17 0.0 0.0 0.00 0.00 0.00 1014.6
20260506180212 -17 0.0 0.0 0.00 0.00 0.00 1014.5
20260506175711 -17 0.0 0.0 0.00 0.00 0.00 1014.5
20260506175133 -17 0.0 0.0 0.00 0.00 0.00 1014.5
20260506174608 -17 0.0 0.0 0.00 0.00 0.00 1014.3
20260506174050 -17 0.0 0.0 0.00 0.00 0.00 1014.3
20260506173502 -17 0.0 0.0 0.00 0.00 0.00 1014.3
20260506172443 -17 0.0 0.0 0.00 0.00 0.00 1014.2
20260506171404 -17 0.0 0.0 0.00 0.00 0.00 1014.3
20260506170822 -17 95 8.0 11.3 0.00 0.00 0.00 1014.3
20260506170304 -17 95 8.0 11.3 0.00 0.00 0.00 1014.3
20260506165719 -17 95 8.0 11.3 0.00 0.00 0.00 1014.3
20260506165211 -17 95 8.0 11.3 0.00 0.00 0.00 1014.3
20260506164702 -17 89 8.0 14.5 0.00 0.00 0.00 1014.3
20260506164155 -17 96 9.7 14.5 0.00 0.00 0.00 1014.3
20260506163146 -17 93 11.3 9.7 0.00 0.00 0.00 1014.3
20260506161049 -17 99 11.3 11.3 0.00 0.00 0.00 1014.4
20260506160532 -17 99 11.3 14.5 0.00 0.00 0.00 1014.4
20260506160029 -17 97 11.3 17.7 0.00 0.00 0.00 1014.4
20260506155459 -17 91 12.9 17.7 0.00 0.00 0.00 1014.4
20260506154930 -17 98 12.9 17.7 0.00 0.00 0.00 1014.4
20260506154404 -17 98 12.9 17.7 0.00 0.00 0.00 1014.4
20260506153354 -17 98 12.9 14.5 0.00 0.00 0.00 1014.5
20260506152839 -17 96 12.9 16.1 0.00 0.00 0.00 1014.5
20260506152333 -17 96 12.9 19.3 0.00 0.00 0.00 1014.5
20260506151741 -17 104 12.9 19.3 0.00 0.00 0.00 1014.5
20260506151239 -17 91 12.9 14.5 0.00 0.00 0.00 1014.5
20260506150228 -17 97 11.3 16.1 0.00 0.00 0.00 1014.5
20260506145727 -17 74 12.9 14.5 0.00 0.00 0.00 1014.5
20260506144643 -17 71 12.9 16.1 0.00 0.00 0.00 1014.6
20260506144106 -17 100 12.9 17.7 0.00 0.00 0.00 1014.6
20260506143606 -17 81 12.9 19.3 0.00 0.00 0.00 1014.6
20260506143052 -17 88 12.9 19.3 0.00 0.00 0.00 1014.5
20260506142552 -17 69 12.9 16.1 0.00 0.00 0.00 1014.5
20260506142050 -17 98 12.9 16.1 0.00 0.00 0.00 1014.5
20260506141550 -17 89 12.9 14.5 0.00 0.00 0.00 1014.6
20260506140457 -17 94 12.9 17.7 0.00 0.00 0.00 1014.6
20260506135953 -17 91 12.9 17.7 0.00 0.00 0.00 1014.8
20260506135451 -17 106 12.9 16.1 0.00 0.00 0.00 1014.8
20260506134950 -17 98 14.5 16.1 0.00 0.00 0.00 1014.8
20260506134441 -17 0.0 0.0 0.00 0.00 0.00 1014.7
20260506133400 -17 0.0 0.0 0.00 0.00 0.00 1014.8
20260506132826 -17 0.0 0.0 0.00 0.00 0.00 1014.8
20260506132246 -17 96 14.5 17.7 0.00 0.00 0.00 1014.8
20260506131706 -17 96 14.5 17.7 0.00 0.00 0.00 1014.8
20260506130637 -17 96 14.5 17.7 0.00 0.00 0.00 1014.8
20260506130137 -17 92 14.5 14.5 0.00 0.00 0.00 1014.7
20260506125615 -17 90 14.5 16.1 0.00 0.00 0.00 1014.7
20260506125057 -17 92 14.5 17.7 0.00 0.00 0.00 1014.7
20260506124022 -17 96 14.5 16.1 0.00 0.00 0.00 1014.8
20260506123509 -17 88 14.5 14.5 0.00 0.00 0.00 1014.8
20260506122948 -17 88 14.5 14.5 0.00 0.00 0.00 1014.9
20260506122446 -17 88 14.5 17.7 0.00 0.00 0.00 1014.9
20260506121937 -17 104 14.5 17.7 0.00 0.00 0.00 1015.0
20260506121415 -17 63 14.5 17.7 0.00 0.00 0.00 1015.0
20260506120315 -17 85 12.9 17.7 0.00 0.00 0.00 1015.1
20260506115748 -17 109 14.5 17.7 0.00 0.00 0.00 1015.1
20260506115238 -17 68 14.5 17.7 0.00 0.00 0.00 1015.1
20260506114734 -17 91 14.5 17.7 0.00 0.00 0.00 1015.2
20260506114233 -17 108 14.5 16.1 0.00 0.00 0.00 1015.2
20260506113652 -17 86 14.5 17.7 0.00 0.00 0.00 1015.2
20260506113144 -17 81 14.5 17.7 0.00 0.00 0.00 1015.2
20260506112643 -17 0.0 0.0 0.00 0.00 0.00 1015.2
20260506112137 -17 0.0 0.0 0.00 0.00 0.00 1015.2
20260506111619 -17 100 12.9 14.5 0.00 0.00 0.00 1015.2
20260506111039 -17 100 12.9 14.5 0.00 0.00 0.00 1015.2
20260506110459 -17 100 12.9 14.5 0.00 0.00 0.00 1015.2
20260506105929 -17 100 12.9 14.5 0.00 0.00 0.00 1015.2
20260506105427 -17 92 12.9 16.1 0.00 0.00 0.00 1015.2
20260506104923 -17 77 12.9 17.7 0.00 0.00 0.00 1015.1
20260506104403 -17 83 12.9 17.7 0.00 0.00 0.00 1015.1
20260506103901 -17 94 11.3 17.7 0.00 0.00 0.00 1015.1
20260506103343 -17 83 11.3 16.1 0.00 0.00 0.00 1015.1
20260506102841 -17 67 11.3 16.1 0.00 0.00 0.00 1015.1
20260506101838 -17 103 9.7 16.1 0.00 0.00 0.00 1015.1
20260506100836 -17 57 9.7 16.1 0.00 0.00 0.00 1015.1
20260506100334 -17 83 9.7 14.5 0.00 0.00 0.00 1015.1
20260506095334 -17 81 9.7 12.9 0.00 0.00 0.00 1015.1
20260506094835 -17 54 9.7 14.5 0.00 0.00 0.00 1015.1
20260506094335 -17 76 9.7 14.5 0.00 0.00 0.00 1015.1
20260506093337 -17 83 9.7 12.9 0.00 0.00 0.00 1015.1
20260506092834 -17 84 9.7 12.9 0.00 0.00 0.00 1015.1
20260506092336 -17 84 9.7 12.9 0.00 0.00 0.00 1015.1
20260506091837 -17 91 9.7 12.9 0.00 0.00 0.00 1015.1
20260506090836 -17 76 9.7 14.5 0.00 0.00 0.00 1015.1
20260506090333 -17 73 9.7 14.5 0.00 0.00 0.00 1015.1
20260506085833 -17 71 11.3 14.5 0.00 0.00 0.00 1015.1
20260506085333 -17 77 11.3 14.5 0.00 0.00 0.00 1015.1
20260506084334 -17 77 11.3 14.5 0.00 0.00 0.00 1015.0
20260506083825 -17 83 11.3 14.5 0.00 0.00 0.00 1015.0
20260506082827 -17 69 9.7 16.1 0.00 0.00 0.00 1015.0
20260506082310 -17 77 9.7 16.1 0.00 0.00 0.00 1015.0
20260506081812 -17 61 8.0 14.5 0.00 0.00 0.00 1015.0
20260506081311 -17 78 8.0 12.9 0.00 0.00 0.00 1015.0
20260506080808 -17 80 8.0 9.7 0.00 0.00 0.00 1015.0
20260506080307 -17 90 8.0 8.0 0.00 0.00 0.00 1015.0
20260506073058 -17 52 9.7 11.3 0.00 0.00 0.00 1014.8
20260506072549 -17 54 9.7 11.3 0.00 0.00 0.00 1014.8
20260506071958 -17 81 9.7 11.3 0.00 0.00 0.00 1014.8
20260506071447 -17 70 9.7 11.3 0.00 0.00 0.00 1014.7
20260506070938 -17 66 9.7 11.3 0.00 0.00 0.00 1014.7
20260506070432 -17 67 8.0 11.3 0.00 0.00 0.00 1014.6
20260506062321 -17 0.0 0.0 0.00 0.00 0.00 1014.7
20260506061742 -17 0.0 0.0 0.00 0.00 0.00 1014.7
20260506061224 -17 0.0 0.0 0.00 0.00 0.00 1014.7
20260506060642 -17 0.0 0.0 0.00 0.00 0.00 1014.7
20260506060122 -17 0.0 0.0 0.00 0.00 0.00 1014.7
20260506051343 -17 0.0 0.0 0.00 0.00 0.00 1014.5
20260506050835 -17 0.0 0.0 0.00 0.00 0.00 1014.5
20260506050334 -17 0.0 0.0 0.00 0.00 0.00 1014.5
20260506044822 -17 0.0 0.0 0.00 0.00 0.00 1014.4
20260506044314 -17 0.0 0.0 0.00 0.00 0.00 1014.4
20260506042035 -17 0.0 0.0 0.00 0.00 0.00 1014.3
20260506041525 -17 0.0 0.0 0.00 0.00 0.00 1014.2
20260506040945 -17 0.0 0.0 0.00 0.00 0.00 1014.2
20260506040350 -17 0.0 0.0 0.00 0.00 0.00 1014.1
20260506035228 -17 0.0 0.0 0.00 0.00 0.00 1014.1
20260506034123 -17 0.0 0.0 0.00 0.00 0.00 1014.0
20260506033544 -17 0.0 0.0 0.00 0.00 0.00 1014.0
20260506033004 -17 0.0 0.0 0.00 0.00 0.00 1014.0
20260506032423 -17 0.0 0.0 0.00 0.00 0.00 1014.0
20260506031848 -17 0.0 0.0 0.00 0.00 0.00 1013.8
20260506031310 -17 0.0 0.0 0.00 0.00 0.00 1013.8
20260506030729 -17 0.0 0.0 0.00 0.00 0.00 1013.8
20260506030155 -17 0.0 0.0 0.00 0.00 0.00 1013.7
20260506025035 -17 0.0 0.0 0.00 0.00 0.00 1013.7
20260506024523 -17 0.0 0.0 0.00 0.00 0.00 1013.6
20260506024018 -17 0.0 0.0 0.00 0.00 0.00 1013.6
20260506022318 -17 0.0 0.0 0.00 0.00 0.00 1013.5
20260506021737 -17 0.0 0.0 0.00 0.00 0.00 1013.5
20260506021144 -17 0.0 0.0 0.00 0.00 0.00 1013.5
20260506020633 -17 0.0 0.0 0.00 0.00 0.00 1013.5
20260506020113 -17 0.0 0.0 0.00 0.00 0.00 1013.4
20260506015533 -17 0.0 0.0 0.00 0.00 0.00 1013.4
20260506014953 -17 0.0 0.0 0.00 0.00 0.00 1013.4
20260506014412 -17 0.0 0.0 0.00 0.00 0.00 1013.4
20260506013253 -17 0.0 0.0 0.00 0.00 0.00 1013.4
20260506012713 -17 0.0 0.0 0.00 0.00 0.00 1013.4
20260506012132 -17 0.0 0.0 0.00 0.00 0.00 1013.4
20260506011004 -17 0.0 0.0 0.00 0.00 0.00 1013.5
20260506005846 -17 0.0 0.0 0.00 0.00 0.00 1013.5
20260506004726 -17 0.0 0.0 0.00 0.00 0.00 1013.5
20260506004148 -17 0.0 0.0 0.00 0.00 0.00 1013.5
20260506003605 -17 0.0 0.0 0.00 0.00 0.00 1013.5
20260506003059 -17 0.0 0.0 0.00 0.00 0.00 1013.5
20260506002519 -17 0.0 0.0 0.00 0.00 0.00 1013.5
20260506001927 -17 0.0 0.0 0.00 0.00 0.00 1013.6
20260506001348 -17 0.0 0.0 0.00 0.00 0.00 1013.6
20260506000309 -17 0.0 0.0 0.00 0.00 0.00 1013.5
20260505235729 -17 0.0 0.0 0.00 0.00 0.00 1013.5
20260505234603 -17 0.0 0.0 0.00 0.00 0.00 1013.6
20260505234019 -17 0.0 0.0 0.00 0.00 0.00 1013.6
20260505232901 -17 0.0 0.0 0.00 0.00 0.00 1013.7
20260505231212 -17 0.0 0.0 0.00 0.00 0.00 1013.9
20260505230632 -17 0.0 0.0 0.00 0.00 0.00 1013.9
20260505230124 -17 0.0 0.0 0.00 0.00 0.00 1014.0
20260505225616 -17 0.0 0.0 0.00 0.00 0.00 1014.0
20260505225036 -17 0.0 0.0 0.00 0.00 0.00 1014.0
20260505224519 -17 0.0 0.0 0.00 0.00 0.00 1014.2
20260505223925 -17 0.0 0.0 0.00 0.00 0.00 1014.2
20260505223354 -17 0.0 0.0 0.00 0.00 0.00 1014.3
20260505222815 -17 0.0 0.0 0.00 0.00 0.00 1014.3
20260505222306 -17 0.0 0.0 0.00 0.00 0.00 1014.3
20260505221759 -17 0.0 0.0 0.00 0.00 0.00 1014.3
20260505221249 -17 0.0 0.0 0.00 0.00 0.00 1014.3
20260505220745 -17 0.0 0.0 0.00 0.00 0.00 1014.3
20260505215735 -17 0.0 0.0 0.00 0.00 0.00 1014.2
20260505215235 -17 0.0 0.0 0.00 0.00 0.00 1014.2
20260505214711 -17 0.0 0.0 0.00 0.00 0.00 1014.2
20260505214209 -17 0.0 0.0 0.00 0.00 0.00 1014.2
20260505213613 -17 0.0 0.0 0.00 0.00 0.00 1014.2
20260505213109 -17 0.0 0.0 0.00 0.00 0.00 1014.2
20260505212605 -17 0.0 0.0 0.00 0.00 0.00 1014.2
20260505212101 -17 0.0 0.0 0.00 0.00 0.00 1014.2
20260505211521 -17 0.0 0.0 0.00 0.00 0.00 1014.2
20260505210938 -17 0.0 0.0 0.00 0.00 0.00 1014.2
20260505210430 -17 0.0 0.0 0.00 0.00 0.00 1014.3
20260505205837 -17 0.0 0.0 0.00 0.00 0.00 1014.3
20260505205333 -17 0.0 0.0 0.00 0.00 0.00 1014.3
20260505204314 -17 0.0 0.0 0.00 0.00 0.00 1014.3
20260505203722 -17 0.0 0.0 0.00 0.00 0.00 1014.3
20260505202609 -17 0.0 0.0 0.00 0.00 0.00 1014.2
20260505202056 -17 0.0 0.0 0.00 0.00 0.00 1014.2
20260505200439 -17 0.0 0.0 0.00 0.00 0.00 1014.2
20260505195847 -17 0.0 0.0 0.00 0.00 0.00 1014.1
20260505194832 -17 0.0 0.0 0.00 0.00 0.00 1014.0
20260505194323 -17 0.0 0.0 0.00 0.00 0.00 1014.0
20260505193747 -17 0.0 0.0 0.00 0.00 0.00 1014.0
20260505193208 -17 0.0 0.0 0.00 0.00 0.00 1014.0
20260505192112 -17 0.0 0.0 0.00 0.00 0.00 1014.0
20260505191540 -17 0.0 0.0 0.00 0.00 0.00 1014.0
20260505190437 -17 0.0 0.0 0.00 0.00 0.00 1013.9
20260505184733 -17 0.0 0.0 0.00 0.00 0.00 1013.8
20260505184218 -17 0.0 0.0 0.00 0.00 0.00 1013.8
20260505183634 -17 0.0 0.0 0.00 0.00 0.00 1013.8